{"data":{"norad_id":68487,"epoch":"2026-05-24T19:38:50.868384Z","epoch_age_seconds":90069,"freshness":"FRESH","line1":"1 68487U 26067BZ  26144.81864431  .00003350  00000+0  33200-3 0  9997","line2":"2 68487  97.7527 103.4501 0001724  29.7975 330.3342 14.92473780  8246","mean_motion":14.9247378,"eccentricity":0.0001724,"inclination_deg":97.7527,"raan_deg":103.4501,"arg_perigee_deg":29.7975,"mean_anomaly_deg":330.3342,"bstar":0.000332,"rev_number":824,"period_min":96.48410707758,"perigee_km":589.02361362744,"apogee_km":591.42630483098,"semimajor_km":6968.3619592292,"source":"CELESTRAK","updated_at":"2026-05-25T13:38:07.872593Z"}}